Tracking 25710 objects as of 6-Jul-2022
HD Live streaming from Space Station
objects crossing your sky now

COSMOS 1709

Track COSMOS 1709 now!
10-day predictions
COSMOS 1709 is classified as:


NORAD ID: 16368
Int'l Code: 1985-116A
Perigee: 964.9 km
Apogee: 1,016.2 km
Inclination: 82.9 °
Period: 104.8 minutes
Semi major axis: 7361 km
RCS: 2.2148 m2 (large)
Launch date: December 19, 1985
Source: Commonwealth of Independent States (former USSR) (CIS)
Launch site: PLESETSK MISSILE AND SPACE COMPLEX (PKMTR)
aabbcc
Your satellite tracking list
Your tracking list is empty




NASA's NSSDC Master Catalog

Two Line Element Set (TLE):
1 16368U 85116A   22187.50363902  .00000042  00000-0  27619-4 0  9998
2 16368  82.9458  99.9955 0034788 181.4261 351.7321 13.74514857832775
Source of the keplerian elements: AFSPC